LW7DST Weather Reports


Display with metric or nautical units.
time (UTC)temp
F
wind
direction
speed
MPH
gust
MPH
rain 1hr
in
rain 24hr
in
rain mn
in
humidity
%
barometer
mb
20260507230005 54 257 10.0 16.0 0.00 0.33 0.33 89 993.9
20260507225404 54 259 8.0 16.0 0.00 0.33 0.33 89 993.9
20260507224505 55 255 5.0 18.0 0.00 0.33 0.33 88 993.9
20260507223604 55 233 8.0 15.0 0.00 0.33 0.33 87 993.7
20260507222704 55 241 8.0 14.0 0.00 0.33 0.33 86 993.7
20260507221804 55 263 10.0 15.0 0.00 0.33 0.33 85 993.8
20260507220904 55 254 7.0 12.0 0.00 0.33 0.33 85 993.4
20260507220004 55 241 5.0 15.0 0.00 0.33 0.33 84 993.3
20260507215614 56 251 7.0 22.0 0.00 0.33 0.33 83 993.2
20260507214504 56 286 9.0 18.0 0.00 0.33 0.33 81 992.9
20260507213604 56 294 11.0 17.0 0.00 0.33 0.33 79 992.7
20260507212704 57 262 8.0 17.0 0.00 0.33 0.33 78 992.9
20260507211804 57 263 7.0 14.0 0.00 0.33 0.33 76 993.2
20260507210904 57 258 5.0 16.0 0.00 0.33 0.33 76 993.2
20260507210005 57 289 6.0 11.0 0.00 0.33 0.33 75 993.3
20260507205404 57 257 4.0 13.0 0.00 0.33 0.33 74 993.4
20260507204504 57 260 6.0 17.0 0.00 0.33 0.33 73 993.1
20260507203604 58 240 8.0 16.0 0.00 0.33 0.33 72 992.8
20260507202704 58 216 8.0 21.0 0.00 0.33 0.33 72 992.5
20260507201804 58 233 8.0 21.0 0.00 0.33 0.33 72 992.6
20260507200903 59 266 14.0 21.0 0.00 0.33 0.33 72 992.7
20260507200004 59 232 9.0 15.0 0.00 0.33 0.33 72 992.0
20260507195404 59 231 11.0 16.0 0.00 0.33 0.33 71 991.5
20260507194504 59 227 8.0 18.0 0.00 0.33 0.33 70 990.9
20260507193604 59 251 8.0 22.0 0.00 0.33 0.33 70 990.9
20260507192913 59 230 11.0 22.0 0.00 0.33 0.33 70 991.2
20260507191804 59 265 7.0 17.0 0.00 0.33 0.33 70 991.5
20260507190904 59 273 8.0 20.0 0.00 0.33 0.33 70 991.9
20260507190005 59 282 10.0 20.0 0.00 0.33 0.33 71 992.7
20260507185404 59 260 11.0 19.0 0.00 0.33 0.33 71 992.9
20260507184504 59 254 7.0 22.0 0.00 0.33 0.33 71 993.3
20260507183814 59 249 8.0 18.0 0.00 0.33 0.33 71 993.3
20260507182704 59 251 8.0 17.0 0.00 0.33 0.33 71 993.4
20260507181804 59 253 9.0 18.0 0.00 0.33 0.33 72 993.8
20260507180903 59 297 4.0 16.0 0.00 0.33 0.33 73 994.6
20260507180004 59 299 8.0 16.0 0.00 0.33 0.33 73 994.6
20260507175404 59 284 8.0 17.0 0.00 0.33 0.33 74 994.5
20260507174714 59 244 6.0 17.0 0.00 0.33 0.33 74 994.2
20260507173604 59 289 7.0 15.0 0.00 0.33 0.33 76 993.7
20260507172704 59 244 4.0 14.0 0.00 0.33 0.33 77 992.9
20260507171804 58 220 4.0 9.0 0.00 0.33 0.33 77 992.7
20260507170905 59 223 4.0 8.0 0.00 0.33 0.33 78 992.7
20260507170005 58 225 4.0 8.0 0.00 0.33 0.33 77 993.1
20260507165404 58 228 2.0 11.0 0.00 0.33 0.33 77 993.0
20260507164504 58 201 5.0 15.0 0.00 0.33 0.33 77 993.9
20260507163604 58 251 4.0 17.0 0.00 0.33 0.33 77 994.4
20260507162914 58 236 8.0 17.0 0.00 0.33 0.33 78 994.5
20260507161804 58 246 6.0 22.0 0.00 0.33 0.33 77 994.3
20260507160903 59 218 10.0 16.0 0.00 0.33 0.33 77 993.7
20260507160005 59 211 4.0 12.0 0.00 0.33 0.33 78 993.2
20260507155405 59 209 4.0 16.0 0.00 0.33 0.33 78 992.6
20260507154505 59 212 7.0 14.0 0.00 0.33 0.33 79 993.0
20260507153605 59 222 4.0 14.0 0.00 0.33 0.33 77 993.0
20260507152704 59 235 9.0 19.0 0.00 0.33 0.33 77 993.2
20260507151804 60 235 4.0 18.0 0.00 0.33 0.33 80 993.7
20260507151114 61 236 9.0 15.0 0.00 0.33 0.33 83 993.3
20260507150005 61 234 5.0 12.0 0.00 0.33 0.33 83 993.2
20260507145404 61 277 4.0 16.0 0.00 0.33 0.33 85 993.3
20260507144504 60 252 7.0 17.0 0.00 0.33 0.33 87 993.9
20260507143604 61 223 3.0 15.0 0.00 0.33 0.33 88 993.8
20260507142704 61 244 7.0 13.0 0.00 0.33 0.33 88 993.8
20260507141805 61 209 3.0 7.0 0.00 0.33 0.33 88 992.4
20260507140904 61 210 3.0 11.0 0.00 0.33 0.33 89 992.4
20260507140005 61 224 4.0 9.0 0.00 0.33 0.33 89 992.4
20260507135404 61 223 2.0 9.0 0.00 0.33 0.33 90 992.8
20260507134503 61 221 4.0 11.0 0.00 0.33 0.33 90 993.1
20260507133604 61 215 7.0 10.0 0.00 0.33 0.33 90 993.6
20260507132704 61 221 2.0 9.0 0.00 0.34 0.33 90 993.5
20260507131805 61 237 2.0 10.0 0.00 0.35 0.33 90 994.2
20260507131114 61 219 3.0 7.0 0.00 0.35 0.33 91 993.9
20260507130215 60 233 4.0 8.0 0.00 0.35 0.33 92 994.1
20260507125615 60 277 5.0 11.0 0.00 0.35 0.33 92 994.8
20260507124714 60 243 2.0 13.0 0.00 0.35 0.33 92 994.5
20260507123605 60 221 8.0 14.0 0.00 0.35 0.33 93 992.2
20260507122915 60 231 8.0 14.0 0.00 0.35 0.33 94 992.2
20260507121804 60 248 7.0 15.0 0.00 0.35 0.33 95 992.3
20260507120904 60 230 7.0 17.0 0.00 0.35 0.33 97 993.2
20260507120005 60 247 10.0 17.0 0.00 0.35 0.33 98 993.0
20260507115404 60 231 4.0 17.0 0.00 0.35 0.33 98 992.6
20260507114504 60 212 12.0 16.0 0.00 0.35 0.33 99 991.8
20260507113605 60 216 8.0 16.0 0.00 0.35 0.33 99 991.3
20260507112705 60 259 7.0 14.0 0.00 0.35 0.33 99 993.1
20260507111804 60 279 8.0 12.0 0.00 0.35 0.33 99 993.4
20260507110904 60 237 7.0 13.0 0.00 0.35 0.33 99 992.6
20260507110005 61 224 3.0 8.0 0.00 0.35 0.33 99 992.0
20260507105404 61 224 4.0 11.0 0.00 0.35 0.33 99 991.7
20260507104715 61 219 4.0 11.0 0.00 0.35 0.33 98 991.4
20260507103604 61 347 0.0 2.0 0.00 0.35 0.33 98 992.2
20260507102704 61 318 0.0 4.0 0.00 0.35 0.33 98 991.9
20260507101804 61 308 1.0 6.0 0.00 0.35 0.33 98 992.7
20260507100904 61 297 2.0 9.0 0.00 0.35 0.33 98 992.4
20260507100005 61 240 2.0 8.0 0.00 0.35 0.33 98 991.6
20260507095614 62 210 8.0 9.0 0.00 0.35 0.33 98 991.1
20260507094504 62 218 4.0 12.0 0.00 0.35 0.33 98 990.3
20260507093605 62 227 3.0 17.0 0.00 0.35 0.33 98 991.2
20260507092914 62 229 6.0 17.0 0.00 0.35 0.33 98 991.7
20260507091804 62 210 5.0 10.0 0.00 0.35 0.33 98 991.5
20260507090904 62 212 2.0 10.0 0.00 0.35 0.33 98 990.6
20260507090005 62 219 4.0 13.0 0.00 0.35 0.33 98 990.9
20260507085404 62 223 4.0 13.0 0.00 0.35 0.33 98 990.9
20260507084504 63 230 4.0 10.0 0.00 0.35 0.33 97 991.7
20260507083604 63 250 4.0 11.0 0.00 0.35 0.33 97 991.6
20260507082913 64 235 6.0 11.0 0.00 0.35 0.33 97 991.5
20260507081804 65 231 8.0 14.0 0.00 0.35 0.33 98 991.1
20260507080904 65 260 6.0 11.0 0.00 0.35 0.33 98 991.5
20260507080004 64 309 0.0 4.0 0.00 0.35 0.33 98 991.4
20260507075404 64 205 0.0 5.0 0.00 0.35 0.33 97 991.5
20260507074504 65 154 0.0 7.0 0.01 0.35 0.33 98 990.0
20260507073604 65 105 3.0 6.0 0.01 0.35 0.33 98 990.2
20260507072704 65 66 2.0 8.0 0.01 0.35 0.33 98 991.1
20260507071804 65 80 3.0 8.0 0.02 0.35 0.33 97 991.2
20260507070904 65 88 1.0 8.0 0.04 0.35 0.33 97 991.1
20260507070008 65 71 2.0 9.0 0.05 0.35 0.33 97 991.0
20260507065404 65 61 4.0 9.0 0.05 0.35 0.33 97 991.1
20260507064504 65 61 4.0 10.0 0.05 0.34 0.32 97 991.6
20260507063604 65 81 4.0 13.0 0.05 0.34 0.32 97 991.8
20260507062704 65 105 6.0 12.0 0.06 0.34 0.32 97 991.1
20260507061804 66 103 3.0 7.0 0.05 0.33 0.31 97 993.0
20260507060904 66 113 3.0 6.0 0.04 0.32 0.30 97 993.0
20260507060004 67 147 0.0 4.0 0.02 0.31 0.28 96 993.8
20260507055404 67 198 0.0 6.0 0.02 0.31 0.28 96 994.4
20260507054504 67 211 5.0 9.0 0.02 0.30 0.27 96 994.1
20260507053604 67 216 5.0 10.0 0.02 0.30 0.27 95 993.9
20260507052704 67 202 3.0 9.0 0.02 0.28 0.26 95 993.4
20260507051804 67 147 2.0 7.0 0.04 0.28 0.26 95 992.9
20260507050904 67 177 4.0 7.0 0.12 0.28 0.26 95 992.6
20260507050005 67 272 0.0 8.0 0.22 0.28 0.26 94 992.1
20260507045404 67 179 4.0 11.0 0.25 0.28 0.26 94 992.2
20260507044713 67 177 5.0 9.0 0.25 0.27 0.25 94 991.1
20260507043604 67 195 2.0 8.0 0.25 0.27 0.25 93 993.1
20260507042704 67 250 1.0 7.0 0.24 0.26 0.24 93 993.6
20260507041804 67 123 2.0 13.0 0.22 0.25 0.22 92 992.6
20260507040904 68 219 4.0 15.0 0.14 0.17 0.14 90 992.8
20260507040004 69 203 4.0 21.0 0.04 0.06 0.04 87 992.2
20260507035404 70 206 8.0 21.0 0.01 0.04 0.01 83 991.5
20260507034504 73 291 5.0 23.0 0.00 0.02 0.00 78 991.4
20260507033814 76 355 11.0 21.0 0.00 0.02 0.00 85 990.8
20260507032913 76 11 11.0 15.0 0.00 0.02 0.00 82 990.0
20260507031804 78 14 8.0 21.0 0.00 0.02 0.00 78 990.2
20260507030904 78 1 10.0 18.0 0.00 0.02 0.00 77 990.3
20260507030013 78 341 7.0 23.0 0.00 0.02 0.00 76 990.7
20260507025404 78 329 6.0 18.0 0.00 0.02 0.02 76 990.7
20260507024504 78 348 10.0 21.0 0.00 0.02 0.02 76 990.5
20260507023604 78 350 4.0 20.0 0.00 0.02 0.02 76 991.0
20260507022704 78 356 7.0 17.0 0.00 0.02 0.02 77 990.8
20260507021804 78 347 6.0 17.0 0.00 0.02 0.02 77 991.1
20260507020904 78 10 8.0 16.0 0.00 0.02 0.02 77 991.1
20260507020004 78 18 7.0 15.0 0.00 0.02 0.02 77 991.5
20260507015404 78 15 4.0 14.0 0.00 0.02 0.02 77 991.9
20260507014505 78 6 7.0 16.0 0.00 0.02 0.02 77 991.8
20260507013604 78 357 9.0 15.0 0.00 0.02 0.02 77 992.0
20260507012704 78 334 7.0 15.0 0.00 0.02 0.02 77 992.0
20260507012014 78 1 8.0 17.0 0.00 0.02 0.02 77 992.0
20260507010904 78 347 7.0 17.0 0.00 0.02 0.02 77 991.9
20260507010004 79 360 10.0 17.0 0.00 0.02 0.02 77 992.0
20260507005404 79 20 6.0 16.0 0.00 0.02 0.02 76 992.2
20260507004504 79 352 8.0 14.0 0.00 0.02 0.02 76 992.3
20260507003604 79 338 5.0 17.0 0.00 0.02 0.02 76 992.4
20260507002705 79 340 12.0 19.0 0.00 0.02 0.02 76 992.4
20260507002016 78 334 8.0 15.0 0.00 0.02 0.02 77 991.8
20260507000904 78 353 8.0 16.0 0.00 0.02 0.02 79 991.8
20260507000005 78 358 6.0 17.0 0.00 0.02 0.02 79 991.7
20260506235404 78 357 8.0 17.0 0.00 0.02 0.02 79 991.9
20260506234713 78 357 5.0 16.0 0.00 0.02 0.02 81 991.9
20260506233604 76 356 7.0 13.0 0.00 0.02 0.02 85 991.7
20260506232704 75 3 6.0 11.0 0.00 0.02 0.02 87 991.3
20260506231803 74 358 5.0 10.0 0.00 0.02 0.02 88 991.3
20260506230905 73 25 5.0 10.0 0.00 0.02 0.02 88 991.7